[[{"header":{"parameterUnit":"m.s-1","parameterCategory":2,"la1":30.2991,"la2":30.254,"lo1":-89.0895,"lo2":-89.0444,"dy":0.0017,"dx":0.0017,"nx":28,"ny":28,"refTime":"2025-07-30T03:00:00:Z","depth":"0","parameterNumber":2,"parameterNumberName":"U-component_of_CURRENTS"},"data":[0,0,0,0,0,0,0,0,0,0,0,0,0,0,0,0,0,0,0,0,0,0,0,0,0,0,0,0,0,0,0,0,0,0,0,0,0,0,0,0,0,0,0,0,0,0,0,0,0,0,0,0,0,0,0,0,0,0,0.2267,0.2268,0,0.2368,0.2369,0.237,0.237,0.2369,0.2368,0.2367,0.2233,0.2231,0.2228,0,0,0,0,0,0,0,0,0,0,0,0,0,0.2175,0.2176,0.2266,0.2268,0.2269,0.2368,0.2369,0.2371,0.2371,0.2369,0.2368,0.2366,0.2234,0.2231,0.2228,0,0,0,0,0,0,0,0,0,0,0,0,0,0.2238,0.2177,0.2266,0.2282,0.2285,0.2368,0.237,0.2371,0.2371,0.2369,0.2367,0.2366,0.2235,0.2231,0.2228,0.224,0,0,0.2216,0.2215,0,0,0,0,0,0,0,0,0.2234,0.2241,0.2279,0.2281,0.2285,0.2356,0.2289,0.2316,0.2371,0.2337,0.2367,0.2365,0.2255,0.225,0.2274,0.2234,0.2228,0.2216,0.2214,0.2212,0.2211,0,0,0,0,0,0,0,0.223,0.2237,0.2305,0.228,0.2284,0.232,0.2326,0.2295,0.2299,0.2339,0.234,0.2355,0.2254,0.2277,0.227,0.2226,0.2216,0.2213,0.2211,0.2209,0.222,0.2222,0,0,0,0,0,0,0.2218,0.2233,0.2302,0.2308,0.2257,0.2323,0.233,0.2334,0.2304,0.23,0.2356,0.2354,0.2285,0.2274,0.2265,0.2269,0.2212,0.2209,0.2207,0.2217,0.222,0.2223,0,0,0,0,0,0,0.2215,0.2222,0.2298,0.2275,0.2287,0.2326,0.2331,0.2337,0.2363,0.232,0.2311,0.2377,0.2283,0.227,0.2253,0.2263,0.2207,0.2204,0.2214,0.2218,0.2222,0.228,0,0,0,0,0,0,0.2212,0.222,0.2243,0.2274,0.2288,0.2336,0.2333,0.234,0.2375,0.2374,0.2334,0.2321,0.228,0.2259,0.2249,0.2257,0.2201,0.2211,0.2216,0.222,0.2275,0.2285,0.2294,0,0,0,0,0,0.2208,0.2237,0.2243,0.2253,0.2309,0.2337,0.2348,0.2369,0.2378,0.2387,0.2377,0.2322,0.2282,0.2258,0.2246,0.2252,0.2209,0.2215,0.222,0.2271,0.2283,0.2294,0,0,0,0,0,0,0.2214,0.2241,0.2248,0.2285,0.2305,0.2337,0.2352,0.2381,0.239,0.2381,0.2345,0.2331,0.2322,0.2294,0.2269,0.2278,0.224,0.2244,0.2283,0.2294,0.2304,0.2333,0.2198,0,0,0,0,0,0.2226,0.2256,0.2272,0.2309,0.2299,0.2331,0.2356,0.2371,0.2379,0.2384,0.2375,0.2359,0.2341,0.2321,0.2303,0.23,0.2294,0.2305,0.2314,0.2322,0.2344,0.2338,0.2348,0.2241,0.2241,0.2241,0,0,0.2236,0.2265,0.2278,0.2314,0.2317,0.2321,0.2339,0.2362,0.2395,0.2362,0.2398,0.2386,0.2352,0.2353,0.2346,0.2324,0.2357,0.2329,0.2336,0.2354,0.2345,0.2355,0.2364,0.2245,0.2245,0.2244,0,0,0.2252,0.228,0.2285,0.2287,0.2306,0.2338,0.2344,0.2378,0.2407,0.2441,0.2433,0.2452,0.242,0.2424,0.2409,0.2469,0.241,0.2449,0.2509,0.2503,0.2511,0.2517,0.2546,0.2555,0.245,0.245,0.245,0,0.2254,0.2275,0.2296,0.2282,0.2291,0.2337,0.2329,0.2375,0.2426,0.2452,0.2447,0.2493,0.2462,0.2486,0.251,0.2488,0.2477,0.2456,0.2512,0.2519,0.2525,0.2552,0.2561,0.2453,0.2453,0.2452,0.2452,0,0.2245,0.2262,0.2254,0.2261,0.2281,0.2285,0.2323,0.2376,0.2429,0.2476,0.2535,0.2552,0.2578,0.2576,0.255,0.2592,0.257,0.2522,0.2474,0.2538,0.2564,0.2573,0.2458,0.2457,0.2456,0.2455,0,0,0.2214,0.2243,0.2231,0.2236,0.2264,0.2279,0.2332,0.2394,0.2441,0.252,0.2592,0.262,0.2664,0.2659,0.2663,0.2672,0.2714,0.2616,0.2614,0.2631,0.2716,0.2717,0.2725,0.2648,0.2649,0.265,0.2725,0,0.2186,0.2186,0.2208,0.2218,0.2215,0.226,0.2321,0.239,0.2454,0.2543,0.2616,0.2664,0.2683,0.27,0.273,0.2709,0.2734,0.27,0.2664,0.2665,0.2644,0.2734,0.2599,0.2653,0.2732,0.2734,0.2735,0,0.2145,0.2167,0.2168,0.2223,0.2216,0.2236,0.2323,0.2376,0.2494,0.2548,0.2641,0.2693,0.2786,0.2766,0.2827,0.2792,0.2774,0.2762,0.2763,0.2749,0.2681,0.2599,0.2665,0.2656,0.2747,0.2746,0.2745,0,0.2127,0.2133,0.2158,0.2155,0.2222,0.2235,0.2274,0.2369,0.2418,0.2542,0.2597,0.2721,0.2793,0.2803,0.2828,0.2806,0.2866,0.282,0.2824,0.2824,0.2701,0.2689,0.2741,0.285,0.2849,0.2849,0.2849,0,0.2096,0.2096,0.2144,0.214,0.2167,0.2211,0.2244,0.231,0.2411,0.2472,0.2597,0.2691,0.2793,0.2852,0.2847,0.2889,0.2886,0.2874,0.2849,0.2723,0.2712,0.2691,0.2668,0.2852,0.2851,0.2851,0.285,0,0.2058,0.2089,0.2104,0.2151,0.2157,0.2162,0.2185,0.2209,0.2329,0.2416,0.2459,0.2669,0.2778,0.2862,0.2901,0.2919,0.2855,0.292,0.2799,0.2761,0.2781,0.2765,0.2625,0.2583,0.2973,0.2973,0.2974,0,0.2024,0.2052,0.2087,0.2065,0.2063,0.2067,0.2068,0.2156,0.2176,0.2395,0.2436,0.2621,0.2756,0.2887,0.29,0.2934,0.2861,0.2845,0.2796,0.2807,0.277,0.2605,0.2569,0.2664,0.2662,0.266,0.2659,0,0.1972,0.2007,0.2013,0.1996,0.1964,0.1954,0.1953,0.1971,0.2102,0.2194,0.2366,0.2502,0.2709,0.276,0.2846,0.2834,0.2725,0.2815,0.2825,0.2562,0.2379,0.2317,0.2625,0.2644,0.2645,0.2646,0.2647,0.2648,0.19,0.1913,0.1939,0.1907,0.1869,0.1848,0.1823,0.1844,0.19,0.2031,0.2227,0.2382,0.2592,0.2729,0.2702,0.2653,0.2633,0.2627,0.2621,0.2464,0.2379,0.2699,0.2686,0.2687,0.2689,0.269,0.2691,0,0.1812,0.1857,0.1838,0.1805,0.1742,0.1768,0.1757,0.1737,0.176,0.1878,0.2019,0.2238,0.2333,0.2457,0.2496,0.2466,0.2292,0.2453,0.2187,0.2178,0.247,0.2418,0.2344,0.2344,0.2344,0.2344,0.2344,0.2344,0.1767,0.1772,0.1805,0.1704,0.1671,0.1592,0.1584,0.1569,0.1619,0.1695,0.179,0.1958,0.226,0.2376,0.2384,0.2328,0.2194,0.2049,0.213,0.2359,0.2374,0.2388,0.2337,0.2247,0.2247,0.1699,0.1695,0.1692]},{"header":{"parameterUnit":"m.s-1","parameterCategory":2,"la1":30.2991,"la2":30.254,"lo1":-89.0895,"lo2":-89.0444,"dy":0.0017,"dx":0.0017,"nx":28,"ny":28,"refTime":"2025-07-30T03:00:00:Z","depth":"0","parameterNumber":3,"parameterNumberName":"V-component_of_CURRENTS"},"data":[0,0,0,0,0,0,0,0,0,0,0,0,0,0,0,0,0,0,0,0,0,0,0,0,0,0,0,0,0,0,0,0,0,0,0,0,0,0,0,0,0,0,0,0,0,0,0,0,0,0,0,0,0,0,0,0,0,0,0.0879,0.0879,0,0.0896,0.0896,0.0896,0.0897,0.0897,0.0897,0.0897,0.0808,0.0806,0.0803,0,0,0,0,0,0,0,0,0,0,0,0,0,0.0832,0.0833,0.0879,0.0879,0.088,0.0895,0.0896,0.0896,0.0897,0.0897,0.0897,0.0897,0.0808,0.0806,0.0803,0,0,0,0,0,0,0,0,0,0,0,0,0,0.0851,0.0833,0.0879,0.0882,0.0882,0.0895,0.0896,0.0896,0.0897,0.0897,0.0897,0.0896,0.0809,0.0806,0.0803,0.0789,0,0,0.0793,0.0791,0,0,0,0,0,0,0,0,0.085,0.0853,0.0881,0.0882,0.0882,0.0894,0.0846,0.0855,0.0897,0.0892,0.0897,0.0896,0.0827,0.0822,0.0828,0.0784,0.0781,0.0793,0.0791,0.0789,0.0788,0,0,0,0,0,0,0,0.0848,0.0852,0.0886,0.0882,0.0882,0.0876,0.0879,0.0848,0.0859,0.0892,0.0892,0.0894,0.0826,0.0831,0.0825,0.0779,0.0793,0.079,0.0788,0.0786,0.075,0.0751,0,0,0,0,0,0,0.0848,0.0851,0.0885,0.0886,0.0865,0.0877,0.088,0.0891,0.0862,0.0858,0.0894,0.0894,0.0837,0.0829,0.0822,0.0804,0.0789,0.0786,0.0784,0.0749,0.075,0.0751,0,0,0,0,0,0,0.0847,0.0851,0.0885,0.0868,0.0872,0.0879,0.089,0.0891,0.0902,0.0864,0.0858,0.0904,0.0836,0.0826,0.0783,0.08,0.0785,0.0782,0.0748,0.0749,0.075,0.0766,0,0,0,0,0,0,0.0845,0.0851,0.0863,0.0868,0.0873,0.0899,0.089,0.0892,0.0902,0.0903,0.087,0.0862,0.0835,0.0788,0.078,0.0795,0.0779,0.0746,0.0748,0.075,0.0764,0.0768,0.0771,0,0,0,0,0,0.0844,0.0861,0.0863,0.0868,0.0888,0.09,0.0902,0.0905,0.0903,0.0913,0.0875,0.0863,0.0796,0.0785,0.0775,0.079,0.0745,0.0748,0.075,0.0763,0.0767,0.0771,0,0,0,0,0,0,0.0844,0.0863,0.0866,0.0888,0.0896,0.09,0.0903,0.0911,0.0894,0.0887,0.0852,0.084,0.0813,0.0802,0.0791,0.0791,0.0779,0.0779,0.0792,0.0796,0.0799,0.0841,0.0776,0,0,0,0,0,0.085,0.0875,0.0881,0.0902,0.0896,0.0902,0.0908,0.0916,0.09,0.0895,0.0877,0.0852,0.0817,0.0804,0.0778,0.0764,0.075,0.0779,0.0782,0.0785,0.0815,0.079,0.0794,0.0758,0.0758,0.0758,0,0,0.0852,0.0872,0.0882,0.0905,0.0901,0.0906,0.0905,0.0916,0.093,0.0883,0.0885,0.0853,0.0814,0.0797,0.0788,0.0787,0.0783,0.0787,0.0789,0.082,0.0793,0.0796,0.0799,0.076,0.076,0.0759,0,0,0.0864,0.0882,0.0894,0.09,0.0909,0.0919,0.0924,0.0934,0.0941,0.0934,0.0903,0.0887,0.0847,0.0833,0.0813,0.0825,0.0794,0.082,0.0873,0.0847,0.085,0.0852,0.0813,0.0812,0.083,0.083,0.083,0,0.0855,0.0884,0.0899,0.0904,0.0911,0.0924,0.093,0.094,0.0945,0.0945,0.0938,0.0907,0.0872,0.0855,0.0861,0.0834,0.0805,0.0851,0.085,0.0852,0.0854,0.0814,0.0813,0.0831,0.0831,0.0831,0.0831,0,0.0866,0.0886,0.0888,0.0906,0.0922,0.093,0.0943,0.0962,0.0973,0.0981,0.098,0.095,0.0939,0.0928,0.089,0.0897,0.0864,0.0845,0.0835,0.0858,0.0815,0.0813,0.0832,0.0832,0.0832,0.0831,0,0,0.0817,0.0884,0.0876,0.0897,0.0924,0.0938,0.096,0.0979,0.0992,0.1012,0.1033,0.1002,0.1008,0.0992,0.0965,0.0957,0.0927,0.0914,0.0912,0.087,0.0853,0.0792,0.0783,0.0892,0.0893,0.0893,0.0807,0,0.0803,0.0843,0.0877,0.0904,0.0917,0.0945,0.0973,0.0999,0.101,0.1034,0.1038,0.1035,0.1025,0.1018,0.1015,0.0953,0.0928,0.0952,0.0846,0.0844,0.0781,0.0782,0.0806,0.0729,0.0805,0.0805,0.0805,0,0.0774,0.0816,0.0851,0.0925,0.0928,0.0949,0.0993,0.1023,0.1051,0.1059,0.1081,0.1077,0.1092,0.107,0.1019,0.103,0.0951,0.0905,0.0899,0.0847,0.078,0.0725,0.0722,0.0668,0.0801,0.0801,0.0802,0,0.0734,0.0787,0.0832,0.0846,0.0925,0.0943,0.0984,0.1019,0.1052,0.1076,0.1098,0.1109,0.1122,0.1066,0.0984,0.0992,0.0902,0.0893,0.0765,0.0758,0.0766,0.076,0.0702,0.0837,0.0837,0.0837,0.0837,0,0.0706,0.0731,0.0815,0.0829,0.0874,0.0934,0.0973,0.1004,0.1065,0.1107,0.1117,0.1157,0.112,0.1069,0.0989,0.0874,0.0899,0.0784,0.0739,0.0769,0.0764,0.0708,0.0665,0.0834,0.0834,0.0835,0.0836,0,0.066,0.0714,0.0757,0.0835,0.0857,0.0886,0.0976,0.1012,0.1065,0.1125,0.1142,0.1184,0.1145,0.1065,0.0957,0.087,0.0718,0.0689,0.072,0.0681,0.0546,0.0503,0.0387,0.0391,0.0575,0.0573,0.0571,0,0.0661,0.0685,0.0745,0.0771,0.0802,0.086,0.0909,0.0991,0.1043,0.1146,0.1184,0.1176,0.1198,0.1027,0.0861,0.0694,0.0643,0.0569,0.0605,0.0548,0.0468,0.0441,0.0454,0.061,0.0609,0.0608,0.0607,0,0.0666,0.0674,0.0705,0.0752,0.0793,0.0863,0.0943,0.0989,0.1102,0.1168,0.1259,0.129,0.1156,0.1045,0.0798,0.0676,0.0552,0.0543,0.0489,0.0501,0.0467,0.0445,0.0642,0.0599,0.06,0.06,0.0601,0.0601,0.0649,0.0673,0.0712,0.0751,0.0805,0.0892,0.0962,0.1058,0.1171,0.1305,0.1322,0.1407,0.1249,0.0962,0.0751,0.0443,0.0468,0.0402,0.0355,0.0334,0.0345,0.051,0.0409,0.0409,0.0408,0.0408,0.0408,0,0.0641,0.0688,0.073,0.079,0.0854,0.089,0.1016,0.1107,0.1247,0.136,0.1455,0.1501,0.1238,0.0972,0.0549,0.0321,0.0273,0.0219,0.0225,0.0251,0.0407,0.0419,0.031,0.031,0.031,0.031,0.031,0.031,0.064,0.0686,0.0722,0.0832,0.0888,0.1012,0.1094,0.1213,0.1339,0.1537,0.1658,0.177,0.1717,0.0876,0.037,0.0216,0.0114,0.0027,0.0001,0.0137,0.0153,0.0168,0.0172,0.0014,0.0014,-0.0078,-0.0079,-0.008]}],[{"header":{"parameterUnit":"m.s-1","parameterCategory":2,"la1":30.2991,"la2":30.254,"lo1":-89.0895,"lo2":-89.0444,"dy":0.0017,"dx":0.0017,"nx":28,"ny":28,"refTime":"2025-07-30T03:00:00:Z","depth":"2","parameterNumber":2,"parameterNumberName":"U-component_of_CURRENTS"},"data":[0,0,0,0,0,0,0,0,0,0,0,0,0,0,0,0,0,0,0,0,0,0,0,0,0,0,0,0,0,0,0,0,0,0,0,0,0,0,0,0,0,0,0,0,0,0,0,0,0,0,0,0,0,0,0,0,0,0,0.1445,0.1443,0,0.1323,0.1322,0.1322,0.1568,0.1575,0.1582,0.1589,0.158,0.1573,0.1566,0,0,0,0,0,0,0,0,0,0,0,0,0,0.1632,0.163,0.1445,0.1442,0.144,0.1323,0.1322,0.1321,0.1566,0.1575,0.1584,0.1593,0.1582,0.1574,0.1566,0,0,0,0,0,0,0,0,0,0,0,0,0,0.1543,0.1629,0.1445,0.1543,0.155,0.1323,0.1322,0.1321,0.1564,0.1575,0.1586,0.1597,0.1585,0.1575,0.1564,0.1279,0,0,0.1532,0.1527,0,0,0,0,0,0,0,0,0.1548,0.1537,0.153,0.1535,0.1543,0.1465,0.1385,0.131,0.1562,0.1567,0.1589,0.1602,0.1538,0.1532,0.1495,0.1279,0.1278,0.1531,0.1525,0.152,0.1517,0,0,0,0,0,0,0,0.1554,0.1542,0.1405,0.1527,0.1534,0.1503,0.1507,0.1371,0.1501,0.1567,0.1583,0.1553,0.1546,0.1504,0.1497,0.1278,0.1531,0.1522,0.1515,0.1511,0.1576,0.1584,0,0,0,0,0,0,0.1553,0.1548,0.1409,0.14,0.1563,0.1492,0.1495,0.1485,0.15,0.151,0.1544,0.1565,0.1517,0.1509,0.1497,0.1567,0.152,0.151,0.1504,0.1568,0.1578,0.1587,0,0,0,0,0,0,0.1558,0.1542,0.1413,0.1465,0.1446,0.1478,0.1464,0.1477,0.1559,0.148,0.1497,0.1628,0.1525,0.1512,0.1507,0.1554,0.1505,0.1496,0.1559,0.1571,0.1582,0.1444,0,0,0,0,0,0,0.1564,0.1545,0.1546,0.1465,0.1443,0.1392,0.1453,0.1466,0.1512,0.1542,0.1551,0.1556,0.1533,0.1523,0.1496,0.1539,0.1487,0.1548,0.1564,0.1579,0.1438,0.145,0.1459,0,0,0,0,0,0.1571,0.1537,0.1547,0.153,0.1441,0.1392,0.1382,0.1443,0.1506,0.1556,0.1571,0.1563,0.1611,0.1513,0.1482,0.1523,0.1541,0.156,0.1577,0.1433,0.1447,0.1459,0,0,0,0,0,0,0.1606,0.1553,0.1566,0.1517,0.1505,0.1435,0.1443,0.147,0.1504,0.1533,0.1526,0.1528,0.1581,0.159,0.1487,0.1634,0.1626,0.1638,0.1529,0.1541,0.1552,0.1591,0.1479,0,0,0,0,0,0.1599,0.1545,0.1533,0.1465,0.1499,0.1478,0.1465,0.1488,0.1482,0.1516,0.1523,0.1573,0.1597,0.1604,0.162,0.157,0.1558,0.165,0.1661,0.1667,0.1707,0.17,0.1706,0.1647,0.1646,0.1646,0,0,0.1556,0.1521,0.1483,0.1465,0.1461,0.1462,0.1509,0.1491,0.1496,0.1483,0.1528,0.1562,0.1607,0.1626,0.166,0.1643,0.1676,0.1691,0.1692,0.173,0.1718,0.1721,0.1724,0.1659,0.1657,0.1655,0,0,0.1448,0.1473,0.1436,0.1474,0.1471,0.1439,0.1469,0.1469,0.1535,0.1502,0.1572,0.1614,0.1629,0.166,0.1677,0.1748,0.1733,0.1868,0.1893,0.1882,0.1882,0.1882,0.1795,0.1788,0.1863,0.1863,0.1863,0,0.1463,0.1401,0.1411,0.1444,0.1459,0.1461,0.1475,0.1481,0.1468,0.1497,0.1554,0.1598,0.1629,0.1629,0.1764,0.1742,0.1765,0.178,0.1873,0.1874,0.1876,0.1789,0.1782,0.1859,0.1859,0.186,0.186,0,0.1381,0.1373,0.1373,0.1402,0.14,0.1413,0.1438,0.1482,0.1518,0.1501,0.1556,0.155,0.1584,0.1666,0.1741,0.1825,0.1839,0.1857,0.1777,0.1869,0.1776,0.1772,0.1852,0.1854,0.1855,0.1856,0,0,0.1425,0.1343,0.1383,0.1397,0.142,0.1416,0.1429,0.1452,0.1504,0.1482,0.1485,0.1582,0.1578,0.162,0.1673,0.1755,0.1773,0.189,0.1891,0.1694,0.1746,0.1773,0.1769,0.1831,0.1833,0.1834,0.1639,0,0.1438,0.1424,0.1379,0.1382,0.1406,0.1447,0.1417,0.1416,0.1486,0.149,0.1452,0.1506,0.1545,0.1615,0.1633,0.1799,0.1782,0.1825,0.1792,0.179,0.1708,0.1773,0.1637,0.1462,0.1634,0.1634,0.1633,0,0.1497,0.145,0.1421,0.1374,0.1407,0.1401,0.1475,0.1475,0.1467,0.1514,0.1477,0.1472,0.1497,0.1564,0.1609,0.1667,0.172,0.1808,0.1799,0.1887,0.1814,0.1435,0.1448,0.1626,0.1626,0.1627,0.1627,0,0.1556,0.1555,0.1494,0.1519,0.1415,0.1466,0.1484,0.1509,0.1532,0.1607,0.1627,0.1516,0.1525,0.1547,0.1712,0.17,0.181,0.1714,0.1699,0.1694,0.1607,0.1597,0.172,0.172,0.1721,0.1721,0.1722,0,0.163,0.1634,0.155,0.1552,0.1536,0.151,0.1543,0.1633,0.1613,0.1603,0.1644,0.1579,0.1596,0.162,0.1676,0.1699,0.169,0.1724,0.1677,0.156,0.1549,0.1754,0.1761,0.1714,0.1716,0.1717,0.1718,0,0.1633,0.1601,0.1566,0.152,0.1538,0.1572,0.1603,0.161,0.1704,0.1712,0.1738,0.1664,0.171,0.1728,0.1796,0.1688,0.173,0.1743,0.1596,0.1539,0.1567,0.1571,0.153,0.153,0.153,0.153,0.153,0,0.1541,0.1489,0.1546,0.1555,0.1557,0.1594,0.1553,0.1648,0.1661,0.1731,0.1667,0.1751,0.1629,0.1656,0.1644,0.1611,0.1756,0.1515,0.1442,0.1606,0.1562,0.1566,0.157,0.1202,0.1199,0.1197,0.1195,0,0.1308,0.1388,0.1376,0.1437,0.1485,0.1498,0.1542,0.1548,0.1609,0.1662,0.1632,0.1575,0.1504,0.1369,0.1458,0.1406,0.1498,0.1463,0.1685,0.1332,0.1299,0.1257,0.1269,0.1176,0.1178,0.1179,0.118,0.1181,0.1202,0.1139,0.1191,0.127,0.1358,0.144,0.145,0.1452,0.1484,0.1513,0.1388,0.1309,0.119,0.1144,0.1159,0.1273,0.1276,0.1241,0.1245,0.1252,0.1311,0.1288,0.1165,0.1166,0.1168,0.1169,0.117,0,0.1063,0.1018,0.0987,0.1137,0.1221,0.1377,0.1387,0.1328,0.1363,0.1378,0.1249,0.0971,0.0851,0.0944,0.1022,0.0981,0.0917,0.1012,0.0942,0.096,0.0977,0.1021,0.0797,0.0797,0.0796,0.0796,0,0,0.0997,0.0908,0.0848,0.0935,0.1112,0.1228,0.1284,0.1235,0.1204,0.1117,0.1094,0.0782,0.0871,0.0807,0.0772,0.0877,0.0921,0.0836,0.1124,0.1062,0.1079,0.1084,0.1172,0,0,0,0,0]},{"header":{"parameterUnit":"m.s-1","parameterCategory":2,"la1":30.2991,"la2":30.254,"lo1":-89.0895,"lo2":-89.0444,"dy":0.0017,"dx":0.0017,"nx":28,"ny":28,"refTime":"2025-07-30T03:00:00:Z","depth":"2","parameterNumber":3,"parameterNumberName":"V-component_of_CURRENTS"},"data":[0,0,0,0,0,0,0,0,0,0,0,0,0,0,0,0,0,0,0,0,0,0,0,0,0,0,0,0,0,0,0,0,0,0,0,0,0,0,0,0,0,0,0,0,0,0,0,0,0,0,0,0,0,0,0,0,0,0,0.0401,0.0399,0,0.0264,0.0263,0.0262,0.0403,0.0408,0.0413,0.0418,0.0446,0.0442,0.0438,0,0,0,0,0,0,0,0,0,0,0,0,0,0.0502,0.0501,0.0401,0.0399,0.0396,0.0264,0.0263,0.0261,0.0402,0.0408,0.0414,0.042,0.0447,0.0442,0.0438,0,0,0,0,0,0,0,0,0,0,0,0,0,0.0427,0.0501,0.0401,0.0446,0.0449,0.0264,0.0263,0.0261,0.0401,0.0408,0.0416,0.0423,0.0449,0.0443,0.0437,0.0252,0,0,0.0419,0.0417,0,0,0,0,0,0,0,0,0.0431,0.0424,0.0442,0.0443,0.0445,0.0353,0.0308,0.0264,0.0399,0.0425,0.0418,0.0426,0.0421,0.0417,0.0381,0.0253,0.0255,0.0419,0.0415,0.0413,0.0411,0,0,0,0,0,0,0,0.0437,0.0429,0.0353,0.0439,0.0441,0.0376,0.0377,0.0299,0.039,0.0423,0.0432,0.0405,0.0425,0.0386,0.0383,0.0255,0.0419,0.0414,0.041,0.0408,0.0392,0.0395,0,0,0,0,0,0,0.0448,0.0434,0.0357,0.0348,0.045,0.0369,0.037,0.038,0.0388,0.0393,0.0399,0.0412,0.0392,0.039,0.0385,0.0422,0.0413,0.0407,0.0404,0.0389,0.0393,0.0396,0,0,0,0,0,0,0.0451,0.0443,0.0362,0.0381,0.0366,0.0361,0.0369,0.0373,0.0404,0.0366,0.0378,0.0435,0.0398,0.0393,0.0383,0.0416,0.0405,0.0399,0.0385,0.039,0.0394,0.0332,0,0,0,0,0,0,0.0455,0.0446,0.0445,0.0383,0.0366,0.0335,0.0361,0.0365,0.0369,0.0387,0.0397,0.0404,0.0404,0.0392,0.0378,0.0407,0.0395,0.0381,0.0388,0.0393,0.033,0.0334,0.0337,0,0,0,0,0,0.046,0.0443,0.0447,0.0436,0.0371,0.0335,0.0323,0.0344,0.0364,0.0396,0.0391,0.0408,0.0424,0.0385,0.0369,0.0398,0.0379,0.0386,0.0392,0.0329,0.0333,0.0337,0,0,0,0,0,0,0.0476,0.0452,0.0458,0.0434,0.042,0.0361,0.0358,0.0352,0.0357,0.0377,0.0371,0.0375,0.0402,0.0405,0.0364,0.0431,0.0432,0.0435,0.039,0.0394,0.0397,0.042,0.039,0,0,0,0,0,0.047,0.0448,0.0439,0.04,0.0426,0.039,0.0368,0.0376,0.0361,0.0374,0.0371,0.0388,0.0393,0.0401,0.0406,0.037,0.036,0.0414,0.0418,0.042,0.0439,0.0442,0.0444,0.0419,0.0419,0.0419,0,0,0.0427,0.0424,0.0394,0.0398,0.0394,0.0397,0.0405,0.0391,0.0383,0.0363,0.0372,0.0377,0.0391,0.0398,0.0415,0.0411,0.0414,0.0428,0.0428,0.0447,0.0449,0.045,0.0451,0.0423,0.0423,0.0422,0,0,0.0356,0.0387,0.0372,0.0413,0.042,0.0387,0.0403,0.0387,0.0415,0.0378,0.0397,0.0405,0.0402,0.041,0.0413,0.0427,0.0432,0.0488,0.0499,0.05,0.05,0.0501,0.043,0.0425,0.0488,0.0488,0.0488,0,0.0346,0.0337,0.0353,0.0408,0.0423,0.0405,0.0421,0.041,0.0375,0.0379,0.0415,0.038,0.0402,0.0372,0.0441,0.0425,0.0429,0.0457,0.0496,0.0497,0.0498,0.0427,0.0421,0.0486,0.0486,0.0486,0.0486,0,0.0307,0.0331,0.0348,0.04,0.0398,0.0423,0.0429,0.044,0.0437,0.0404,0.0402,0.0377,0.0366,0.0403,0.0436,0.0467,0.0461,0.0487,0.0461,0.0495,0.0419,0.0414,0.0482,0.0483,0.0484,0.0484,0,0,0.0291,0.0317,0.0354,0.0389,0.0433,0.0434,0.0432,0.0426,0.0442,0.0398,0.0365,0.0396,0.0367,0.0378,0.038,0.0423,0.043,0.0501,0.0502,0.0387,0.0406,0.0412,0.0407,0.0481,0.0482,0.0483,0.0323,0,0.0307,0.036,0.0365,0.0401,0.0436,0.0471,0.0439,0.0421,0.0443,0.0409,0.0346,0.0341,0.0353,0.037,0.0376,0.0462,0.0431,0.0469,0.0432,0.0429,0.0395,0.0408,0.0387,0.025,0.0318,0.0318,0.0317,0,0.0348,0.0362,0.0382,0.0409,0.0439,0.0444,0.0478,0.047,0.0422,0.0437,0.0374,0.033,0.031,0.0341,0.0348,0.0392,0.0399,0.0435,0.0428,0.0465,0.0432,0.0247,0.0239,0.0309,0.031,0.0311,0.0311,0,0.0345,0.0427,0.0416,0.0459,0.0436,0.0475,0.0491,0.0483,0.0501,0.0488,0.0494,0.0372,0.0345,0.0345,0.0397,0.0409,0.0418,0.0399,0.0341,0.0336,0.0328,0.0324,0.0365,0.0365,0.0365,0.0366,0.0366,0,0.0401,0.0438,0.0441,0.0464,0.0481,0.0487,0.0526,0.0572,0.0548,0.0552,0.0506,0.0451,0.039,0.0355,0.0371,0.0349,0.0353,0.0343,0.0317,0.0303,0.03,0.0387,0.0391,0.036,0.0361,0.0362,0.0363,0,0.0393,0.0403,0.0417,0.0435,0.0469,0.0503,0.0595,0.0622,0.0651,0.0663,0.0657,0.0531,0.0525,0.0444,0.0431,0.0334,0.0327,0.0299,0.0256,0.0231,0.0216,0.022,0.0168,0.0168,0.0167,0.0167,0.0166,0,0.0376,0.0351,0.0407,0.0444,0.0484,0.0554,0.0577,0.0654,0.0707,0.0713,0.0688,0.0644,0.0568,0.0468,0.0379,0.03,0.0321,0.018,0.0195,0.0227,0.0206,0.0211,0.0216,0.0108,0.0107,0.0107,0.0106,0,0.0313,0.0328,0.0343,0.0406,0.0492,0.0575,0.0679,0.0724,0.0781,0.0834,0.0823,0.0767,0.0596,0.0446,0.0325,0.0268,0.0203,0.0162,0.0221,0.0195,0.0169,0.0149,0.0155,0.01,0.0101,0.0101,0.0102,0.0102,0.0292,0.0277,0.0298,0.0388,0.0496,0.0624,0.0723,0.0811,0.0906,0.0974,0.084,0.0785,0.048,0.0328,0.0213,0.0156,0.0173,0.0087,0.0089,0.0092,0.0149,0.0128,0.0055,0.0055,0.0055,0.0056,0.0056,0,0.025,0.0253,0.0289,0.0411,0.054,0.0638,0.0778,0.0856,0.1013,0.1022,0.0988,0.0655,0.0452,0.029,0.0195,0.0042,0.0032,-0.0002,0.0,0.0007,0.0013,0.0066,-0.0051,-0.0052,-0.0052,-0.0053,0,0,0.0226,0.0217,0.0217,0.0414,0.0563,0.0776,0.0899,0.101,0.1062,0.1073,0.1028,0.0727,0.05,0.0322,0.0122,0.0111,0.0111,0.009,0.019,0.0228,0.0236,0.0073,0.0164,0,0,0,0,0]}],[{"header":{"parameterUnit":"m.s-1","parameterCategory":2,"la1":30.2991,"la2":30.254,"lo1":-89.0895,"lo2":-89.0444,"dy":0.0017,"dx":0.0017,"nx":28,"ny":28,"refTime":"2025-07-30T03:00:00:Z","depth":"4","parameterNumber":2,"parameterNumberName":"U-component_of_CURRENTS"},"data":[0,0,0,0,0,0,0,0,0,0,0,0,0,0,0,0,0,0,0,0,0,0,0,0,0,0,0,0,0,0,0,0,0,0,0,0,0,0,0,0,0,0,0,0,0,0,0,0,0,0,0,0,0,0,0,0,0,0,-0.0565,-0.0565,0,-0.0552,-0.0552,-0.0552,-0.0639,-0.0641,-0.0643,-0.0645,-0.0796,-0.0798,-0.08,0,0,0,0,0,0,0,0,0,0,0,0,0,-0.0558,-0.0558,-0.0565,-0.0565,-0.0564,-0.0552,-0.0552,-0.0552,-0.0638,-0.0641,-0.0643,-0.0646,-0.0796,-0.0798,-0.0801,0,0,0,0,0,0,0,0,0,0,0,0,0,-0.0558,-0.0558,-0.0565,-0.0603,-0.0606,-0.0552,-0.0552,-0.0552,-0.0638,-0.0641,-0.0644,-0.0647,-0.0795,-0.0798,-0.0801,-0.0757,0,0,-0.081,-0.0812,0,0,0,0,0,0,0,0,-0.0558,-0.0559,-0.0598,-0.06,-0.0603,-0.0597,-0.0605,-0.0628,-0.0637,-0.0629,-0.0645,-0.0649,-0.074,-0.0748,-0.0741,-0.0764,-0.0771,-0.0811,-0.0813,-0.0814,-0.0815,0,0,0,0,0,0,0,-0.0558,-0.0559,-0.0564,-0.0597,-0.06,-0.0583,-0.0588,-0.0609,-0.0673,-0.063,-0.0636,-0.0627,-0.0744,-0.0738,-0.0746,-0.0773,-0.0811,-0.0813,-0.0815,-0.0817,-0.0964,-0.0965,0,0,0,0,0,0,-0.0554,-0.0559,-0.0564,-0.0563,-0.0584,-0.0581,-0.0587,-0.0599,-0.067,-0.0681,-0.0625,-0.0631,-0.0731,-0.0742,-0.0752,-0.0861,-0.0814,-0.0817,-0.0819,-0.0962,-0.0964,-0.0966,0,0,0,0,0,0,-0.0555,-0.0556,-0.0565,-0.0557,-0.0556,-0.0578,-0.0591,-0.0597,-0.0629,-0.0663,-0.0679,-0.0655,-0.0734,-0.0748,-0.0819,-0.0863,-0.0818,-0.0821,-0.0959,-0.0962,-0.0965,-0.098,0,0,0,0,0,0,-0.0555,-0.0556,-0.0573,-0.0557,-0.0557,-0.0557,-0.0587,-0.0594,-0.0615,-0.0625,-0.0693,-0.0708,-0.0738,-0.0814,-0.0822,-0.0866,-0.0823,-0.0957,-0.0961,-0.0964,-0.0977,-0.0984,-0.0989,0,0,0,0,0,-0.0555,-0.0569,-0.0575,-0.0575,-0.0577,-0.0556,-0.0556,-0.0583,-0.0613,-0.0625,-0.0689,-0.0708,-0.0845,-0.0818,-0.0827,-0.0873,-0.0955,-0.0959,-0.0964,-0.0975,-0.0982,-0.0989,0,0,0,0,0,0,-0.0576,-0.0578,-0.0584,-0.06,-0.0587,-0.0571,-0.0584,-0.0592,-0.0643,-0.0687,-0.0718,-0.0737,-0.0814,-0.084,-0.0808,-0.093,-0.0908,-0.0915,-0.0914,-0.0921,-0.0927,-0.0947,-0.0826,0,0,0,0,0,-0.0582,-0.0596,-0.0583,-0.0592,-0.0595,-0.0591,-0.0591,-0.0616,-0.0645,-0.0672,-0.0716,-0.0782,-0.0827,-0.0874,-0.0913,-0.097,-0.0987,-0.1013,-0.1019,-0.1023,-0.1048,-0.1118,-0.1132,-0.0981,-0.0981,-0.0981,0,0,-0.0586,-0.0589,-0.0596,-0.0596,-0.0597,-0.0594,-0.0603,-0.0627,-0.0649,-0.0681,-0.0753,-0.0794,-0.0844,-0.0915,-0.0955,-0.0953,-0.1066,-0.1029,-0.1032,-0.1056,-0.1125,-0.1139,-0.1152,-0.0984,-0.0984,-0.0983,0,0,-0.0588,-0.0613,-0.0624,-0.0626,-0.0638,-0.0626,-0.0637,-0.0652,-0.0697,-0.0752,-0.0787,-0.0849,-0.0928,-0.0963,-0.0991,-0.1049,-0.1081,-0.1087,-0.1149,-0.1215,-0.1228,-0.124,-0.1231,-0.1242,-0.1106,-0.1106,-0.1106,0,-0.0597,-0.0609,-0.0618,-0.0632,-0.064,-0.0641,-0.0655,-0.0676,-0.072,-0.076,-0.0797,-0.0914,-0.0944,-0.1016,-0.1059,-0.1059,-0.1101,-0.111,-0.1222,-0.1234,-0.1246,-0.1234,-0.1246,-0.1107,-0.1107,-0.1107,-0.1107,0,-0.0603,-0.0622,-0.0631,-0.0645,-0.0653,-0.067,-0.0694,-0.073,-0.0782,-0.0809,-0.0916,-0.097,-0.1053,-0.1066,-0.1093,-0.1196,-0.1194,-0.1203,-0.1198,-0.1262,-0.1245,-0.1257,-0.1109,-0.1108,-0.1108,-0.1108,0,0,-0.0598,-0.0628,-0.0633,-0.0649,-0.0679,-0.068,-0.0727,-0.0756,-0.0795,-0.0885,-0.0951,-0.1049,-0.1113,-0.1152,-0.1192,-0.1259,-0.1345,-0.1302,-0.1305,-0.128,-0.1478,-0.1208,-0.1195,-0.1409,-0.1413,-0.1416,-0.1413,0,-0.0597,-0.0619,-0.0639,-0.0658,-0.0673,-0.0709,-0.0734,-0.0783,-0.0842,-0.0903,-0.0999,-0.1096,-0.1137,-0.1221,-0.1289,-0.1333,-0.1391,-0.1343,-0.1432,-0.1433,-0.1177,-0.1204,-0.1427,-0.1422,-0.1424,-0.1426,-0.1428,0,-0.06,-0.0614,-0.0645,-0.0677,-0.069,-0.0705,-0.0763,-0.0813,-0.0895,-0.0968,-0.109,-0.1161,-0.1284,-0.1317,-0.1448,-0.144,-0.1487,-0.1505,-0.1505,-0.1266,-0.1187,-0.136,-0.145,-0.1448,-0.1446,-0.1445,-0.1443,0,-0.059,-0.0618,-0.0643,-0.0662,-0.0696,-0.0735,-0.0772,-0.0844,-0.0905,-0.1058,-0.1107,-0.1254,-0.1334,-0.1455,-0.1472,-0.1531,-0.1547,-0.1615,-0.1397,-0.1376,-0.1614,-0.1602,-0.1719,-0.1719,-0.1719,-0.1719,-0.1719,0,-0.0583,-0.0602,-0.0646,-0.0666,-0.0686,-0.0762,-0.0825,-0.0876,-0.0988,-0.1026,-0.1183,-0.118,-0.1395,-0.1399,-0.1472,-0.1404,-0.155,-0.1403,-0.1368,-0.1611,-0.16,-0.1618,-0.1606,-0.1719,-0.1719,-0.1719,-0.1719,0,-0.0575,-0.0599,-0.0623,-0.0673,-0.0685,-0.0732,-0.0833,-0.0867,-0.1007,-0.1061,-0.1135,-0.1177,-0.117,-0.1244,-0.1342,-0.1339,-0.134,-0.1275,-0.1439,-0.1413,-0.1146,-0.1136,-0.1124,-0.1115,-0.1107,-0.11,-0.1095,0,-0.0568,-0.0591,-0.0624,-0.062,-0.0645,-0.0725,-0.0741,-0.0874,-0.0915,-0.0982,-0.0963,-0.0976,-0.0984,-0.0859,-0.097,-0.1034,-0.1038,-0.1071,-0.1226,-0.1123,-0.1092,-0.1094,-0.1095,-0.1082,-0.108,-0.1078,-0.1076,0,-0.0561,-0.0586,-0.0603,-0.059,-0.0597,-0.0599,-0.0657,-0.0672,-0.0801,-0.0908,-0.079,-0.0774,-0.0669,-0.0686,-0.0687,-0.0747,-0.1093,-0.0992,-0.1014,-0.116,-0.1072,-0.105,-0.106,-0.1049,-0.1053,-0.1055,-0.1057,0,-0.0562,-0.0552,-0.0568,-0.0551,-0.0527,-0.0459,-0.0508,-0.0507,-0.0556,-0.0664,-0.0561,-0.0537,-0.0574,-0.0518,-0.0503,-0.0533,-0.062,-0.0727,-0.0765,-0.0797,-0.0691,-0.0532,-0.0308,0,0,0,0,0,-0.0549,-0.0528,-0.0513,-0.0455,-0.0421,-0.0395,-0.0418,-0.0478,-0.0571,-0.046,-0.0548,-0.044,-0.039,-0.0339,-0.0322,-0.0399,-0.064,-0.0382,-0.0786,-0.0897,-0.0929,-0.0836,0,0,0,0,0,0,-0.0529,-0.0529,-0.0501,-0.0378,-0.0316,-0.025,-0.0244,-0.0299,-0.0265,-0.0362,-0.0301,-0.0414,-0.0337,-0.0378,-0.0301,-0.0313,-0.0564,-0.0405,-0.0404,-0.0879,-0.0908,-0.0933,-0.0849,0,0,0,0,0]},{"header":{"parameterUnit":"m.s-1","parameterCategory":2,"la1":30.2991,"la2":30.254,"lo1":-89.0895,"lo2":-89.0444,"dy":0.0017,"dx":0.0017,"nx":28,"ny":28,"refTime":"2025-07-30T03:00:00:Z","depth":"4","parameterNumber":3,"parameterNumberName":"V-component_of_CURRENTS"},"data":[0,0,0,0,0,0,0,0,0,0,0,0,0,0,0,0,0,0,0,0,0,0,0,0,0,0,0,0,0,0,0,0,0,0,0,0,0,0,0,0,0,0,0,0,0,0,0,0,0,0,0,0,0,0,0,0,0,0,-0.0118,-0.0119,0,-0.016,-0.0161,-0.0161,-0.0183,-0.0182,-0.0182,-0.0182,-0.0246,-0.0248,-0.025,0,0,0,0,0,0,0,0,0,0,0,0,0,-0.01,-0.0101,-0.0118,-0.0119,-0.0119,-0.016,-0.0161,-0.0162,-0.0183,-0.0182,-0.0182,-0.0182,-0.0246,-0.0248,-0.025,0,0,0,0,0,0,0,0,0,0,0,0,0,-0.0125,-0.0101,-0.0118,-0.0132,-0.0133,-0.016,-0.0161,-0.0162,-0.0183,-0.0182,-0.0182,-0.0181,-0.0245,-0.0248,-0.0251,-0.0277,0,0,-0.026,-0.0261,0,0,0,0,0,0,0,0,-0.0123,-0.0126,-0.013,-0.0131,-0.0133,-0.0163,-0.0178,-0.02,-0.0183,-0.0167,-0.0182,-0.0181,-0.0219,-0.0224,-0.0237,-0.028,-0.0283,-0.026,-0.0262,-0.0263,-0.0264,0,0,0,0,0,0,0,-0.0121,-0.0124,-0.0138,-0.013,-0.0132,-0.015,-0.0153,-0.0183,-0.0198,-0.0169,-0.0169,-0.0169,-0.022,-0.0234,-0.0238,-0.0284,-0.026,-0.0263,-0.0264,-0.0266,-0.0399,-0.0401,0,0,0,0,0,0,-0.0108,-0.0122,-0.0137,-0.0139,-0.0123,-0.0151,-0.0154,-0.0156,-0.0197,-0.0202,-0.0169,-0.017,-0.0229,-0.0235,-0.0241,-0.03,-0.0263,-0.0266,-0.0268,-0.0398,-0.04,-0.0402,0,0,0,0,0,0,-0.0108,-0.0109,-0.0135,-0.0129,-0.0133,-0.0151,-0.0153,-0.0157,-0.0181,-0.0197,-0.0202,-0.019,-0.0229,-0.0237,-0.0284,-0.0301,-0.0267,-0.027,-0.0396,-0.0398,-0.0401,-0.0401,0,0,0,0,0,0,-0.0107,-0.0109,-0.0114,-0.0128,-0.0133,-0.0159,-0.0153,-0.0158,-0.0179,-0.0181,-0.0216,-0.0221,-0.0229,-0.028,-0.0287,-0.0305,-0.0272,-0.0393,-0.0397,-0.04,-0.0399,-0.0404,-0.0407,0,0,0,0,0,-0.0106,-0.0119,-0.0114,-0.0116,-0.0137,-0.0159,-0.0165,-0.0178,-0.0181,-0.0198,-0.0225,-0.0221,-0.0306,-0.0284,-0.0292,-0.031,-0.0392,-0.0396,-0.04,-0.0397,-0.0403,-0.0407,0,0,0,0,0,0,-0.0111,-0.0122,-0.0117,-0.0131,-0.0144,-0.0162,-0.0181,-0.0187,-0.0223,-0.0234,-0.0244,-0.0252,-0.0301,-0.0313,-0.0288,-0.0363,-0.0348,-0.0354,-0.0344,-0.0349,-0.0353,-0.0358,-0.0275,0,0,0,0,0,-0.0112,-0.0125,-0.0134,-0.0143,-0.0155,-0.017,-0.0183,-0.0195,-0.0222,-0.0237,-0.0261,-0.0294,-0.0324,-0.0341,-0.0376,-0.0414,-0.0388,-0.0435,-0.0439,-0.0442,-0.0454,-0.0426,-0.0427,-0.0415,-0.0415,-0.0415,0,0,-0.0115,-0.0121,-0.0128,-0.0145,-0.016,-0.0188,-0.0179,-0.021,-0.0241,-0.024,-0.03,-0.0315,-0.0341,-0.0386,-0.0408,-0.0396,-0.0428,-0.0447,-0.0449,-0.046,-0.043,-0.0431,-0.0431,-0.0418,-0.0417,-0.0417,0,0,-0.0127,-0.0135,-0.0153,-0.0176,-0.0201,-0.0212,-0.0223,-0.0255,-0.028,-0.0333,-0.0338,-0.0367,-0.0421,-0.0435,-0.0449,-0.0503,-0.0456,-0.051,-0.0528,-0.05,-0.0499,-0.0499,-0.0438,-0.0432,-0.0505,-0.0505,-0.0505,0,-0.0131,-0.0149,-0.0162,-0.0193,-0.0217,-0.0225,-0.026,-0.0289,-0.0334,-0.0363,-0.036,-0.0438,-0.0449,-0.0493,-0.05,-0.0512,-0.0469,-0.0497,-0.0501,-0.05,-0.0499,-0.0438,-0.0431,-0.0506,-0.0506,-0.0506,-0.0506,0,-0.0164,-0.0183,-0.0201,-0.0238,-0.0269,-0.0302,-0.0339,-0.0375,-0.0402,-0.043,-0.0493,-0.0508,-0.0546,-0.0549,-0.0536,-0.0546,-0.0506,-0.0507,-0.0475,-0.05,-0.0434,-0.0427,-0.0507,-0.0506,-0.0506,-0.0506,0,0,-0.0161,-0.0212,-0.0219,-0.0244,-0.0302,-0.0328,-0.0388,-0.0441,-0.0483,-0.0527,-0.058,-0.0614,-0.0611,-0.0627,-0.0611,-0.0581,-0.0518,-0.0531,-0.0529,-0.045,-0.0415,-0.0443,-0.0438,-0.05,-0.05,-0.0499,-0.0358,0,-0.018,-0.0229,-0.0262,-0.0319,-0.0348,-0.0394,-0.0444,-0.0501,-0.0547,-0.0602,-0.0628,-0.0669,-0.0644,-0.0642,-0.0616,-0.0553,-0.0505,-0.0555,-0.0424,-0.042,-0.0425,-0.0434,-0.0498,-0.0353,-0.0351,-0.035,-0.0349,0,-0.0208,-0.023,-0.0287,-0.035,-0.0372,-0.0421,-0.0504,-0.0556,-0.0635,-0.0667,-0.0713,-0.0723,-0.0711,-0.0678,-0.0579,-0.0601,-0.0509,-0.0451,-0.0444,-0.0472,-0.0438,-0.0335,-0.0336,-0.0337,-0.0338,-0.0339,-0.034,0,-0.0191,-0.0255,-0.0295,-0.0324,-0.0397,-0.0448,-0.05,-0.0585,-0.0635,-0.0707,-0.073,-0.0742,-0.0724,-0.0646,-0.0531,-0.0535,-0.0403,-0.0398,-0.0338,-0.0336,-0.0347,-0.035,-0.0319,-0.0319,-0.0319,-0.0319,-0.032,0,-0.0207,-0.0244,-0.0295,-0.0323,-0.0392,-0.0453,-0.0545,-0.0596,-0.0671,-0.0724,-0.0756,-0.0762,-0.0706,-0.0635,-0.0535,-0.0417,-0.04,-0.0345,-0.0315,-0.0349,-0.0353,-0.0339,-0.0344,-0.0314,-0.0315,-0.0316,-0.0317,0,-0.021,-0.0236,-0.0284,-0.0353,-0.039,-0.0451,-0.0572,-0.0627,-0.0681,-0.0744,-0.0755,-0.0752,-0.0659,-0.0593,-0.0448,-0.041,-0.0303,-0.0255,-0.0275,-0.0247,-0.0246,-0.0252,-0.0186,-0.0186,-0.0186,-0.0186,-0.0186,0,-0.023,-0.024,-0.0304,-0.0348,-0.0398,-0.0493,-0.0558,-0.0635,-0.0677,-0.0723,-0.0729,-0.0681,-0.0665,-0.0474,-0.0418,-0.0268,-0.025,-0.0196,-0.0256,-0.0261,-0.0238,-0.0244,-0.025,-0.0186,-0.0187,-0.0187,-0.0187,0,-0.0249,-0.0257,-0.0295,-0.0362,-0.0437,-0.0515,-0.0599,-0.0616,-0.0683,-0.0725,-0.0677,-0.0637,-0.055,-0.0453,-0.0348,-0.0242,-0.0252,-0.0197,-0.0196,-0.0252,-0.0261,-0.0239,-0.0245,-0.0187,-0.0187,-0.0187,-0.0187,0,-0.0266,-0.0292,-0.0315,-0.0388,-0.0464,-0.051,-0.0563,-0.0588,-0.0619,-0.0649,-0.062,-0.0567,-0.054,-0.0435,-0.0333,-0.0258,-0.0247,-0.023,-0.0228,-0.0227,-0.0314,-0.0336,-0.0259,0,0,0,0,0,-0.0274,-0.0293,-0.0347,-0.0409,-0.0473,-0.0508,-0.0574,-0.0608,-0.0648,-0.0601,-0.061,-0.0527,-0.0434,-0.0394,-0.0314,-0.035,-0.0247,-0.0261,-0.0228,-0.0189,-0.0188,-0.0291,0,0,0,0,0,0,-0.029,-0.0317,-0.0334,-0.0395,-0.0439,-0.0501,-0.0534,-0.0563,-0.0525,-0.0555,-0.0479,-0.0512,-0.0391,-0.0452,-0.0304,-0.0294,-0.0267,-0.0229,-0.0228,-0.0189,-0.0188,-0.0188,-0.0294,0,0,0,0,0]}]]